[[{"header":{"parameterUnit":"m.s-1","parameterCategory":1,"la1":30.2991,"la2":30.254,"lo1":-89.0895,"lo2":-89.0444,"dy":0.0017,"dx":0.0017,"nx":28,"ny":28,"refTime":"2024-07-23T03:00:00:Z","depth":0,"parameterNumber":2,"parameterNumberName":"U-component_of_WINDS"},"data":[0,0,0,0,0,0,0,0,0,0,0,0,0,0,0,0,0,0,0,0,0,0,0,0,0,0,0,0,0,0,0,0,0,0,0,0,0,0,0,0,0,0,0,0,0,0,0,0,0,0,0,0,0,0,0,0,0,0,0.2282,0.2282,0,0.2325,0.2326,0.2326,0.2371,0.2372,0.2372,0.2373,0.2415,0.2415,0.2416,0,0,0,0,0,0,0,0,0,0,0,0,0,0.2235,0.2236,0.2282,0.2283,0.2283,0.2325,0.2326,0.2326,0.2371,0.2372,0.2372,0.2373,0.2414,0.2415,0.2416,0,0,0,0,0,0,0,0,0,0,0,0,0,0.2265,0.2236,0.2282,0.231,0.2313,0.2325,0.2326,0.2326,0.2371,0.2372,0.2373,0.2373,0.2414,0.2415,0.2416,0.2402,0,0,0.2418,0.2419,0,0,0,0,0,0,0,0,0.2263,0.2266,0.2306,0.2309,0.2312,0.2344,0.2325,0.2352,0.237,0.2349,0.2373,0.2374,0.239,0.2393,0.2399,0.2404,0.2406,0.2418,0.2419,0.2419,0.2419,0,0,0,0,0,0,0,0.2261,0.2265,0.2299,0.2306,0.231,0.232,0.2325,0.233,0.2364,0.2351,0.2354,0.2359,0.2392,0.2398,0.24,0.2406,0.2418,0.2419,0.242,0.242,0.2401,0.24,0,0,0,0,0,0,0.2255,0.2263,0.2298,0.23,0.2289,0.232,0.2326,0.2332,0.2364,0.2369,0.2358,0.2361,0.2396,0.2399,0.2402,0.2387,0.2419,0.242,0.242,0.2402,0.24,0.2399,0,0,0,0,0,0,0.2254,0.2258,0.2296,0.2282,0.2288,0.232,0.2327,0.2333,0.2339,0.2369,0.2375,0.2358,0.2397,0.2401,0.2401,0.2389,0.242,0.2421,0.2403,0.2401,0.24,0.2357,0,0,0,0,0,0,0.2252,0.2257,0.2253,0.2282,0.2289,0.2296,0.2326,0.2333,0.2341,0.2345,0.2371,0.2376,0.2398,0.24,0.2402,0.2391,0.2422,0.2404,0.2402,0.24,0.236,0.2354,0.235,0,0,0,0,0,0.225,0.2239,0.2252,0.2256,0.2284,0.2295,0.2299,0.2325,0.2339,0.2335,0.2354,0.2375,0.239,0.24,0.2403,0.2391,0.2405,0.2403,0.24,0.2362,0.2355,0.235,0,0,0,0,0,0,0.2207,0.2243,0.2259,0.2257,0.2272,0.2302,0.2298,0.2317,0.2328,0.2332,0.2363,0.2368,0.2365,0.2378,0.2388,0.2378,0.24,0.2399,0.237,0.2364,0.2359,0.2356,0.2422,0,0,0,0,0,0.2197,0.2203,0.2235,0.223,0.2237,0.2266,0.2271,0.229,0.2307,0.2314,0.2333,0.2348,0.2356,0.2361,0.237,0.2362,0.2367,0.2355,0.235,0.2346,0.2344,0.2339,0.2334,0.2392,0.2392,0.2392,0,0,0.2177,0.2198,0.22,0.2221,0.2236,0.2241,0.2271,0.2275,0.2279,0.2314,0.2316,0.2331,0.235,0.2345,0.2344,0.2356,0.2329,0.2343,0.2339,0.234,0.2336,0.2331,0.2326,0.239,0.2391,0.2391,0,0,0.2142,0.2159,0.2156,0.217,0.2192,0.2211,0.221,0.2237,0.2248,0.225,0.2277,0.2281,0.2294,0.2306,0.2314,0.2283,0.2302,0.2285,0.2258,0.2253,0.2249,0.2245,0.2233,0.2228,0.2283,0.2282,0.2282,0,0.2114,0.2124,0.2152,0.2155,0.2163,0.2196,0.2192,0.2204,0.2227,0.2231,0.2244,0.2261,0.2276,0.2274,0.2266,0.2272,0.2271,0.2282,0.2247,0.2244,0.224,0.2229,0.2224,0.228,0.228,0.2281,0.2281,0,0.2088,0.2093,0.2089,0.211,0.2118,0.2117,0.2144,0.2148,0.2166,0.2183,0.2184,0.2203,0.2216,0.2217,0.2235,0.2218,0.2224,0.2242,0.2264,0.2232,0.2222,0.2218,0.2277,0.2278,0.2278,0.2279,0,0,0.2028,0.2065,0.2062,0.2072,0.2098,0.2102,0.2102,0.2115,0.2118,0.2132,0.2132,0.2142,0.2158,0.2167,0.2185,0.2181,0.2153,0.2199,0.22,0.2189,0.2135,0.2121,0.2116,0.2166,0.2166,0.2165,0.2133,0,0.1998,0.2001,0.2026,0.2021,0.2026,0.2057,0.2057,0.2071,0.2087,0.2093,0.211,0.2116,0.2137,0.2142,0.214,0.2157,0.2143,0.216,0.2166,0.2165,0.216,0.2111,0.2097,0.2065,0.2129,0.2128,0.2128,0,0.1963,0.1975,0.1971,0.1996,0.1999,0.1998,0.2012,0.2017,0.2034,0.2045,0.2054,0.2075,0.2076,0.2097,0.2097,0.2108,0.2112,0.2121,0.212,0.2121,0.2145,0.211,0.2056,0.2051,0.2122,0.2123,0.2123,0,0.1919,0.1934,0.1934,0.1941,0.197,0.1969,0.198,0.1998,0.2004,0.2015,0.2019,0.203,0.2036,0.2043,0.2065,0.2079,0.2063,0.2086,0.2071,0.2071,0.2067,0.2066,0.2012,0.2069,0.207,0.207,0.207,0,0.1882,0.1878,0.1914,0.1914,0.191,0.1938,0.1933,0.1947,0.1963,0.1965,0.1991,0.1992,0.2022,0.2026,0.2044,0.2041,0.2043,0.2052,0.2057,0.2049,0.2048,0.2052,0.2054,0.2068,0.2069,0.2069,0.2069,0,0.1832,0.1856,0.1858,0.1884,0.1891,0.1887,0.1909,0.1909,0.1926,0.1928,0.193,0.1956,0.1962,0.1986,0.1997,0.2009,0.2,0.2009,0.1994,0.1997,0.1981,0.1982,0.1926,0.192,0.1982,0.1981,0.1981,0,0.1807,0.1805,0.1831,0.1835,0.1845,0.1851,0.1857,0.1884,0.1889,0.1907,0.1904,0.1912,0.192,0.1928,0.1948,0.1956,0.1966,0.1946,0.1967,0.1959,0.1964,0.1964,0.1963,0.1941,0.194,0.1939,0.1939,0,0.176,0.1771,0.178,0.1791,0.1798,0.1808,0.182,0.1821,0.1851,0.1855,0.1861,0.1867,0.1879,0.1886,0.1898,0.1909,0.1928,0.1932,0.1929,0.1921,0.1912,0.1916,0.1981,0.1933,0.1934,0.1934,0.1934,0.1935,0.1721,0.172,0.1738,0.1746,0.1758,0.1768,0.1769,0.1786,0.1792,0.1804,0.1819,0.1823,0.1839,0.1856,0.1865,0.1868,0.1879,0.1875,0.1874,0.1872,0.1868,0.1912,0.1871,0.1871,0.1871,0.1871,0.1871,0,0.1674,0.1687,0.1694,0.171,0.1715,0.1734,0.1747,0.175,0.1754,0.1767,0.1774,0.1781,0.1788,0.1808,0.1816,0.1814,0.1823,0.1816,0.1816,0.1818,0.1858,0.186,0.1808,0.1808,0.1808,0.1808,0.1808,0.1808,0.1651,0.165,0.1663,0.1667,0.168,0.1685,0.1691,0.17,0.171,0.1717,0.1723,0.1736,0.1751,0.1761,0.1767,0.1773,0.1774,0.1763,0.1771,0.1809,0.1815,0.1821,0.1822,0.1764,0.1763,0.1731,0.173,0.173]},{"header":{"parameterUnit":"m.s-1","parameterCategory":1,"la1":30.2991,"la2":30.254,"lo1":-89.0895,"lo2":-89.0444,"dy":0.0017,"dx":0.0017,"nx":28,"ny":28,"refTime":"2024-07-23T03:00:00:Z","depth":0,"parameterNumber":3,"parameterNumberName":"V-component_of_WINDS"},"data":[0,0,0,0,0,0,0,0,0,0,0,0,0,0,0,0,0,0,0,0,0,0,0,0,0,0,0,0,0,0,0,0,0,0,0,0,0,0,0,0,0,0,0,0,0,0,0,0,0,0,0,0,0,0,0,0,0,0,3.4217,3.4217,0,3.4216,3.4216,3.4216,3.4191,3.4191,3.419,3.419,3.4188,3.4188,3.4189,0,0,0,0,0,0,0,0,0,0,0,0,0,3.4199,3.4199,3.4217,3.4217,3.4217,3.4216,3.4216,3.4216,3.4192,3.4191,3.419,3.4189,3.4188,3.4188,3.4189,0,0,0,0,0,0,0,0,0,0,0,0,0,3.4203,3.4199,3.4217,3.4205,3.4204,3.4216,3.4216,3.4216,3.4192,3.4191,3.419,3.4189,3.4187,3.4188,3.4189,3.4213,0,0,3.4191,3.4192,0,0,0,0,0,0,0,0,3.4203,3.4204,3.4207,3.4206,3.4205,3.4203,3.4209,3.4215,3.4192,3.4196,3.419,3.4189,3.4194,3.4194,3.4196,3.4212,3.4212,3.4191,3.4192,3.4192,3.4193,0,0,0,0,0,0,0,3.4203,3.4204,3.4217,3.4207,3.4206,3.4199,3.4199,3.421,3.42,3.4196,3.4194,3.4194,3.4193,3.4195,3.4195,3.4212,3.4191,3.4192,3.4193,3.4193,3.4249,3.425,0,0,0,0,0,0,3.4204,3.4204,3.4217,3.4217,3.4201,3.4201,3.42,3.4204,3.42,3.4198,3.4195,3.4193,3.4194,3.4194,3.4195,3.4223,3.4192,3.4193,3.4194,3.4248,3.4249,3.425,0,0,0,0,0,0,3.4204,3.4205,3.4217,3.421,3.4211,3.4202,3.4207,3.4205,3.4207,3.4199,3.4198,3.4199,3.4193,3.4194,3.4208,3.4222,3.4193,3.4194,3.4246,3.4248,3.4249,3.4277,0,0,0,0,0,0,3.4203,3.4205,3.4214,3.421,3.4211,3.423,3.4208,3.4205,3.4208,3.4206,3.4203,3.4201,3.4193,3.4207,3.4209,3.4223,3.4195,3.4245,3.4247,3.4249,3.4275,3.428,3.4283,0,0,0,0,0,3.4203,3.4222,3.4215,3.4217,3.4222,3.4231,3.4232,3.4222,3.421,3.4218,3.4214,3.4201,3.422,3.4209,3.4211,3.4225,3.4244,3.4247,3.4249,3.4273,3.4279,3.4283,0,0,0,0,0,0,3.4228,3.4221,3.4213,3.4232,3.4232,3.4227,3.4238,3.4228,3.4231,3.4229,3.4216,3.4215,3.4232,3.423,3.4217,3.4247,3.423,3.4233,3.4248,3.4253,3.4257,3.4257,3.4195,0,0,0,0,0,3.4236,3.4244,3.4237,3.4254,3.4255,3.4247,3.425,3.4242,3.4242,3.4242,3.4238,3.4239,3.4245,3.4249,3.4254,3.4275,3.4274,3.4285,3.429,3.4293,3.4295,3.4306,3.4312,3.4257,3.4257,3.4257,0,0,3.4252,3.4249,3.4255,3.4259,3.4259,3.4267,3.4247,3.4257,3.4263,3.4243,3.4257,3.4254,3.4254,3.4272,3.4279,3.427,3.431,3.4296,3.4299,3.4299,3.4309,3.4314,3.4319,3.4259,3.4259,3.4258,0,0,3.4285,3.4284,3.4298,3.4298,3.4298,3.4292,3.4295,3.4292,3.4289,3.4303,3.4288,3.4296,3.4306,3.4307,3.4308,3.4342,3.4331,3.4344,3.4366,3.4377,3.4381,3.4385,3.4397,3.4402,3.4347,3.4347,3.4347,0,3.4305,3.4318,3.4307,3.4318,3.432,3.4303,3.4318,3.4318,3.4319,3.4321,3.4312,3.4325,3.4323,3.4341,3.4349,3.4351,3.4355,3.4345,3.4381,3.4385,3.4388,3.44,3.4405,3.4349,3.4348,3.4348,3.4348,0,3.4342,3.4351,3.4363,3.4364,3.4368,3.4381,3.4372,3.4377,3.4369,3.4364,3.4378,3.4376,3.438,3.4384,3.4376,3.4401,3.4395,3.4384,3.4366,3.4395,3.4406,3.441,3.4351,3.435,3.435,3.4349,0,0,3.4391,3.4387,3.4392,3.4392,3.4391,3.4397,3.4409,3.4414,3.4419,3.442,3.443,3.444,3.4429,3.4431,3.4423,3.4432,3.446,3.442,3.4419,3.4427,3.4487,3.4496,3.4501,3.4453,3.4453,3.4454,3.4487,0,3.4424,3.4444,3.4435,3.4456,3.4464,3.4448,3.4459,3.4459,3.4455,3.4461,3.4457,3.4464,3.4449,3.445,3.4459,3.4455,3.4472,3.4452,3.4461,3.4462,3.4462,3.4507,3.4516,3.4547,3.4491,3.4492,3.4492,0,3.4464,3.4468,3.449,3.4487,3.449,3.45,3.4503,3.451,3.4509,3.4506,3.4508,3.4498,3.451,3.4492,3.4508,3.4495,3.4498,3.4497,3.4498,3.4498,3.4479,3.4508,3.4557,3.4562,3.4499,3.4498,3.4498,0,3.4498,3.4508,3.4523,3.4524,3.4521,3.4528,3.4527,3.4526,3.453,3.4533,3.4535,3.454,3.4542,3.4546,3.4537,3.4525,3.4554,3.4536,3.4552,3.4552,3.4558,3.4558,3.4608,3.456,3.456,3.456,3.456,0,3.4535,3.4549,3.4538,3.4547,3.4562,3.4552,3.4567,3.4565,3.4564,3.4572,3.4559,3.4567,3.4555,3.4562,3.4556,3.457,3.4571,3.4568,3.4566,3.457,3.457,3.4571,3.4569,3.4561,3.4561,3.4561,3.4561,0,3.4575,3.4568,3.4583,3.4579,3.4579,3.459,3.4587,3.4595,3.4591,3.4601,3.4603,3.4596,3.4603,3.4595,3.4602,3.4597,3.4616,3.4611,3.4617,3.4615,3.4631,3.463,3.4684,3.4691,3.4639,3.4639,3.464,0,3.4599,3.461,3.4607,3.4612,3.4612,3.462,3.4623,3.4613,3.4618,3.4619,3.4627,3.4633,3.4638,3.465,3.4646,3.4651,3.4646,3.4664,3.4646,3.4649,3.4646,3.4646,3.4647,3.4668,3.4669,3.4669,3.467,0,3.4643,3.4639,3.4645,3.465,3.4655,3.4658,3.466,3.4665,3.4654,3.466,3.4667,3.4671,3.4678,3.4685,3.4688,3.4687,3.4677,3.4675,3.4679,3.4682,3.4685,3.4684,3.4627,3.4674,3.4674,3.4673,3.4673,3.4673,3.4676,3.4685,3.4684,3.4692,3.4692,3.4695,3.4702,3.4699,3.4705,3.471,3.4704,3.4713,3.4713,3.4717,3.4718,3.4725,3.4717,3.4722,3.4724,3.4725,3.4728,3.4684,3.4725,3.4725,3.4725,3.4725,3.4725,0,3.4719,3.4718,3.4725,3.4729,3.4734,3.4724,3.4726,3.4731,3.474,3.4741,3.4746,3.4755,3.4761,3.4757,3.4762,3.4769,3.4764,3.4771,3.477,3.477,3.4735,3.4731,3.4774,3.4774,3.4774,3.4774,3.4774,3.4774,3.4742,3.4757,3.4753,3.4768,3.4767,3.4776,3.4778,3.478,3.4781,3.4792,3.4797,3.4794,3.4793,3.4799,3.4804,3.4803,3.4805,3.4814,3.481,3.4777,3.4773,3.4768,3.4764,3.4814,3.4814,3.4845,3.4846,3.4846]}]]